Weather History for Lone Rock, WI

Change the Weather History Date:

Saturday, August 30, 2014

  Actual Average Record
Temperature  
Mean Temperature 78 °F -  
Max Temperature 84 °F 78 °F 93 °F (2013)
Min Temperature 72 °F 54 °F 46 °F (1999)
Cooling Degree Days 13    
Growing Degree Days 28 (Base 50)    
Moisture  
Dew Point 68 °F    
Average Humidity 78    
Maximum Humidity 85    
Minimum Humidity 58    
Precipitation  
Precipitation 0.58 in - - ()
Sea Level Pressure  
Sea Level Pressure 29.78 in    
Wind  
Wind Speed 6 mph (WSW)    
Max Wind Speed 15 mph    
Max Gust Speed 17 mph    
Visibility 8 miles    
Events Rain , Thunderstorm    
Averages and records for this station are not official NWS values.
T = Trace of Precipitation, MM = Missing Value Source: NWS Daily Summary

Daily Weather History Graph

Daily Weather History Graph

Search for Another Location

Airport:

Trip Planner

Search our weather history database for the weather conditions in past years. The results will help you decide how hot, cold, wet, or windy it might be!

Date:

Astronomy

Aug. 30, 2014 Rise Set
Actual Time 6:22 AM CDT 7:39 PM CDT
Civil Twilight 5:53 AM CDT 8:08 PM CDT
Nautical Twilight 5:17 AM CDT 8:43 PM CDT
Astronomical Twilight 4:40 AM CDT 9:20 PM CDT
Moon 11:19 AM CDT (8/30) 10:04 PM CDT (8/30)
Length of Visible Light 14h 15m
Length of Day
13h 16m
Waxing Crescent, 23% of the Moon is Illuminated
Aug 30
Waxing Crescent
Sep 2
First Quarter
Sep 8
Full
Sep 15
Last Quarter
Sep 24
New

Hourly Weather History & Observations

Time (CDT) Temp. Heat Index Dew Point Humidity Pressure Visibility Wind Dir Wind Speed Gust Speed Precip Events Conditions
12:11 AM 73.9 °F - 69.1 °F 85% 29.78 in 10.0 mi East 5.8 mph - N/A Thunderstorm Overcast
12:24 AM 73.9 °F - 69.1 °F 85% 29.77 in 2.0 mi SSE 5.8 mph - 0.14 in Rain , Thunderstorm Heavy Rain
12:27 AM 73.9 °F - 69.1 °F 85% 29.77 in 1.8 mi South 5.8 mph - 0.14 in Rain , Thunderstorm Heavy Rain
12:30 AM 75.0 °F - 70.0 °F 84% 29.77 in 2.5 mi South 8.1 mph - 0.14 in Rain , Thunderstorm Light Rain
12:37 AM 75.0 °F - 69.1 °F 82% 29.78 in 3.0 mi Variable 5.8 mph - 0.21 in Rain , Thunderstorm Light Rain
12:39 AM 73.9 °F - 69.1 °F 85% 29.78 in 1.5 mi Variable 3.5 mph - 0.29 in Rain Heavy Rain
12:51 AM 75.2 °F - 69.8 °F 83% 29.77 in 2.0 mi South 9.2 mph - 0.45 in Rain , Thunderstorm Rain
12:56 AM 75.0 °F - 70.0 °F 84% 29.74 in 3.0 mi South 9.2 mph - 0.46 in Rain , Thunderstorm Light Rain
1:09 AM 75.0 °F - 70.0 °F 84% 29.77 in 3.0 mi SSW 5.8 mph - 0.03 in Rain Rain
1:19 AM 75.0 °F - 70.0 °F 84% 29.77 in 8.0 mi SSW 5.8 mph - 0.04 in Rain Light Rain
1:52 AM 75.2 °F - 69.8 °F 83% 29.76 in 10.0 mi SW 8.1 mph - 0.04 in   Overcast
1:56 AM 75.9 °F - 70.0 °F 82% 29.73 in 10.0 mi SW 6.9 mph - 0.04 in   Overcast
2:56 AM 75.0 °F - 68.0 °F 79% 29.73 in 10.0 mi WSW 5.8 mph - 0.00 in   Overcast
3:53 AM 73.4 °F - 68.0 °F 83% 29.77 in 10.0 mi SW 4.6 mph - N/A   Overcast
3:56 AM 73.9 °F - 68.0 °F 82% 29.74 in 10.0 mi SW 3.5 mph - N/A   Overcast
4:56 AM 73.0 °F - 66.9 °F 81% 29.73 in 10.0 mi Calm Calm - N/A   Partly Cloudy
5:26 AM 73.0 °F - 66.9 °F 81% 29.77 in 10.0 mi WSW 3.5 mph - N/A   Mostly Cloudy
5:53 AM 73.4 °F - 66.2 °F 78% 29.77 in 10.0 mi SSW 3.5 mph - N/A   Mostly Cloudy
5:56 AM 72.0 °F - 66.9 °F 84% 29.73 in 10.0 mi SSW 3.5 mph - N/A   Mostly Cloudy
6:56 AM 73.0 °F - 66.9 °F 81% 29.74 in 10.0 mi WNW 3.5 mph - N/A   Scattered Clouds
7:13 AM 73.0 °F - 66.9 °F 81% 29.77 in 10.0 mi West 4.6 mph - N/A   Mostly Cloudy
7:22 AM 73.0 °F - 66.9 °F 81% 29.77 in 10.0 mi WSW 5.8 mph - N/A   Mostly Cloudy
7:56 AM 73.9 °F - 66.9 °F 79% 29.74 in 10.0 mi WNW 3.5 mph - N/A   Mostly Cloudy
8:54 AM 75.2 °F - 66.2 °F 73% 29.77 in 10.0 mi SW 6.9 mph - 0.00 in   Mostly Cloudy
8:56 AM 75.9 °F - 66.9 °F 74% 29.74 in 10.0 mi SW 8.1 mph - 0.00 in   Mostly Cloudy
9:03 AM 75.9 °F - 66.9 °F 74% 29.77 in 10.0 mi WSW 6.9 mph - N/A   Mostly Cloudy
9:56 AM 77.0 °F - 66.9 °F 71% 29.76 in 10.0 mi WSW 6.9 mph - N/A   Overcast
10:56 AM 75.9 °F - 66.9 °F 74% 29.77 in 10.0 mi West 11.5 mph - N/A   Overcast
11:15 AM 73.9 °F - 68.0 °F 82% 29.80 in 1.8 mi West 9.2 mph - 0.04 in Rain Rain
11:23 AM 73.9 °F - 69.1 °F 85% 29.80 in 3.0 mi West 8.1 mph - 0.04 in Rain Light Rain
11:26 AM 73.9 °F - 69.1 °F 85% 29.80 in 5.0 mi West 8.1 mph - 0.04 in Rain Light Rain
11:33 AM 75.0 °F - 69.1 °F 82% 29.80 in 10.0 mi West 8.1 mph - 0.04 in   Overcast
11:56 AM 77.0 °F - 69.1 °F 76% 29.77 in 10.0 mi West 5.8 mph - 0.04 in   Overcast
12:07 PM 75.9 °F - 68.0 °F 76% 29.80 in 10.0 mi West 9.2 mph - 0.00 in Rain Light Rain
12:34 PM 78.1 °F - 68.0 °F 71% 29.80 in 6.0 mi West 9.2 mph - 0.01 in Rain Light Rain
12:56 PM 79.0 °F - 69.1 °F 72% 29.78 in 10.0 mi West 13.8 mph - 0.02 in Rain Light Rain
1:17 PM 77.0 °F - 69.1 °F 76% 29.81 in 5.0 mi WNW 8.1 mph 17.3 mph 0.01 in Rain Rain
1:30 PM 78.1 °F - 69.1 °F 74% 29.82 in 10.0 mi WNW 8.1 mph - 0.01 in   Mostly Cloudy
1:56 PM 81.0 °F 83.8 °F 68.0 °F 65% 29.79 in 10.0 mi WNW 15.0 mph - 0.02 in   Mostly Cloudy
3:56 PM 82.0 °F 84.5 °F 66.9 °F 60% 29.79 in 10.0 mi WNW 8.1 mph - N/A   Clear
4:56 PM 84.0 °F 87.0 °F 68.0 °F 58% 29.79 in 10.0 mi WNW 10.4 mph - N/A   Mostly Cloudy
5:56 PM 82.9 °F 85.4 °F 66.9 °F 58% 29.80 in 10.0 mi West 9.2 mph - N/A   Partly Cloudy
6:56 PM 81.0 °F 83.3 °F 66.9 °F 62% 29.81 in 10.0 mi WNW 5.8 mph - N/A   Clear
7:56 PM 77.0 °F - 68.0 °F 74% 29.83 in 10.0 mi Calm Calm - N/A   Clear
8:56 PM 73.9 °F - 66.9 °F 79% 29.84 in 10.0 mi Calm Calm - N/A   Clear
9:56 PM 72.0 °F - 66.0 °F 81% 29.86 in 10.0 mi Calm Calm - N/A   Mostly Cloudy
10:56 PM 72.0 °F - 66.9 °F 84% 29.87 in 10.0 mi WSW 3.5 mph - N/A   Mostly Cloudy
11:56 PM 72.0 °F - 66.9 °F 84% 29.88 in 10.0 mi Calm Calm - N/A   Overcast